Probability
90 87 87 81 71 71 74 74 74 84 87 90 90 90 90 87 87 87 81 90 87 87 97 97 97 94 97 97 100 100 100 100 100 100 100 100 100 100 97 97 94 90 84
84 77 68 61 55 52 52 58 65 68 71 77 77 77 77 74 71 74 71 65 77 87 90 90 94 90 90 94 94 94 97 94 90 100 100 100 100 100 100 97 90 94 84
61 61 61 48 42 29 29 26 35 35 39 48 45 52 61 61 65 61 61 52 61 68 77 84 90 87 87 81 90 94 90 94 90 90 94 97 100 100 100 100 97 94 84
58 48 42 26 23 19 19 13 13 16 19 26 29 26 26 35 39 45 55 58 55 55 55 84 87 87 87 84 84 84 90 94 90 84 84 94 97 97 90 87 90 74 45
39 42 23 16 16 13 13 13 10 10 10 10 10 6 6 13 10 10 23 48 48 45 45 45 81 87 84 81 77 81 84 84 87 87 90 97 94 87 71 61 55 45 29
32 23 13 10 10 13 13 3 10 0 6 6 10 6 6 6 6 6 6 16 19 35 42 42 55 55 74 81 74 74 74 84 84 90 90 94 97 87 61 45 32 29 19
16 13 10 10 10 13 10 3 3 3 6 3 6 6 3 3 3 3 3 6 13 29 26 39 45 45 48 55 61 58 68 65 77 84 84 84 90 94 65 42 26 19 6
16 10 10 3 6 6 3 3 6 6 0 0 3 3 3 0 0 0 0 3 3 10 23 23 39 35 32 35 23 32 55 68 68 68 71 74 77 77 61 45 32 6 6
13 13 6 6 6 6 6 6 6 6 3 0 0 3 3 0 0 0 0 0 0 6 6 13 16 16 13 16 16 10 19 39 52 65 71 68 58 52 45 55 45 23 10
0 3 3 3 3 3 3 3 3 6 3 3 0 0 0 0 0 0 0 0 0 0 0 0 0 3 3 6 10 3 3 6 26 42 65 68 58 42 42 55 68 61 26
0 0 0 0 0 0 0 0 0 0 0 0 0 0 0 0 0 0 0 0 0 0 0 0 0 0 0 0 0 0 0 0 3 19 29 39 52 45 42 58 74 84 74
0 0 0 0 0 0 0 0 0 0 0 0 0 0 0 0 0 0 0 0 0 0 0 0 0 0 0 0 3 0 0 0 0 0 6 19 29 35 45 52 77 77 81
0 0 0 0 0 0 0 0 0 0 0 0 0 0 0 0 0 0 0 0 0 0 0 0 0 0 0 0 0 0 0 0 0 0 0 3 3 13 10 32 45 65 68
0 0 0 0 0 0 0 0 0 0 0 0 0 0 0 0 0 0 0 0 0 0 0 0 0 0 0 0 0 0 0 0 0 0 0 0 3 0 0 3 10 16 23
0 0 0 0 0 0 0 0 0 0 0 0 0 0 0 0 0 0 0 0 0 0 0 0 0 0 0 0 0 0 0 0 0 0 0 0 0 0 0 0 0 3 6
0 0 0 0 0 0 0 0 0 0 0 0 0 0 0 0 0 0 0 0 0 0 0 0 0 0 0 0 0 0 0 0 0 0 0 0 0 0 0 0 0 0 0
0 0 0 0 0 0 0 0 0 0 0 0 0 0 0 0 0 0 0 0 0 0 0 0 0 0 0 0 0 0 0 0 0 0 0 0 0 0 0 0 0 0 0
0 0 0 0 0 0 0 0 0 0 0 0 0 0 0 0 0 0 0 0 0 0 0 0 0 0 0 0 0 0 0 0 0 0 0 0 0 0 0 0 0 0 0
0 0 0 0 0 0 0 0 0 0 0 0 0 0 0 0 0 0 0 0 0 0 0 0 0 0 0 0 0 0 0 0 0 0 0 0 0 0 0 0 0 0 0
0 0 0 0 0 0 0 0 0 0 0 0 0 0 0 0 0 0 0 0 0 0 0 0 0 0 0 0 0 0 0 0 0 0 0 0 0 0 0 0 0 0 0
0 0 0 0 0 0 0 0 0 0 0 0 0 0 0 0 0 0 0 0 0 0 0 0 0 0 0 0 0 0 0 0 0 0 0 0 0 0 0 0 0 0 0
0 0 0 0 0 0 0 0 0 0 0 0 0 0 0 0 0 0 0 0 0 0 0 0 0 0 0 0 0 0 0 0 0 0 0 0 0 0 0 0 0 0 0
0 0 0 0 0 0 0 0 0 0 0 0 0 0 0 0 0 0 0 0 0 0 0 0 0 0 0 0 0 0 0 0 0 0 0 0 0 0 0 0 0 0 0
0 0 0 0 0 0 0 0 0 0 0 0 0 0 0 0 0 0 0 0 0 0 0 0 0 0 0 0 0 0 0 0 0 0 0 0 0 0 0 0 0 0 0
0 0 0 0 0 0 0 0 0 0 0 0 0 0 0 0 0 0 0 0 0 0 0 0 0 0 0 0 0 0 0 0 0 0 0 0 0 0 0 0 0 0 0
0 0 0 0 0 0 0 0 0 0 0 0 0 0 0 0 0 0 0 0 0 0 0 0 0 0 0 0 0 0 0 0 0 0 0 0 0 0 0 0 0 0 0
Height
5851 5850 5850 5849 5849 5849 5848 5848 5848 5848 5848 5848 5848 5848 5849 5849 5850 5850 5851 5852 5854 5855 5857 5859 5860 5862 5864 5867 5869 5872 5874 5876 5879 5881 5883 5885 5886 5888 5890 5892 5894 5896 5897
5845 5844 5844 5844 5843 5843 5843 5842 5842 5842 5842 5842 5843 5843 5844 5844 5845 5846 5846 5847 5848 5849 5851 5853 5854 5856 5858 5860 5863 5865 5868 5871 5874 5876 5878 5881 5883 5885 5887 5889 5891 5893 5895
5838 5837 5837 5837 5837 5837 5837 5836 5836 5836 5836 5837 5837 5838 5839 5839 5840 5841 5841 5841 5842 5844 5845 5846 5848 5850 5852 5853 5856 5859 5862 5865 5868 5870 5873 5876 5879 5881 5883 5885 5887 5889 5892
5830 5830 5830 5831 5831 5830 5831 5831 5831 5831 5831 5832 5832 5833 5834 5834 5835 5836 5837 5837 5837 5838 5839 5841 5842 5844 5846 5848 5850 5852 5855 5858 5861 5864 5867 5870 5873 5876 5879 5881 5883 5886 5888
5823 5823 5824 5824 5825 5825 5825 5825 5825 5826 5826 5827 5827 5828 5829 5829 5830 5832 5832 5833 5833 5833 5834 5836 5837 5839 5840 5842 5844 5846 5849 5851 5855 5858 5861 5864 5868 5871 5874 5876 5879 5881 5884
5817 5818 5817 5818 5819 5819 5819 5820 5820 5820 5821 5822 5823 5823 5824 5825 5826 5827 5828 5828 5829 5829 5830 5831 5832 5834 5835 5837 5838 5841 5843 5846 5848 5851 5855 5858 5861 5865 5868 5871 5874 5877 5879
5811 5811 5811 5812 5812 5813 5813 5813 5814 5814 5815 5817 5818 5819 5819 5820 5821 5822 5823 5824 5824 5825 5826 5827 5828 5829 5830 5832 5833 5835 5837 5839 5842 5845 5848 5851 5854 5858 5862 5865 5868 5871 5874
5804 5805 5805 5806 5806 5807 5807 5807 5807 5809 5810 5811 5812 5813 5815 5816 5817 5818 5819 5819 5820 5821 5822 5822 5823 5824 5825 5827 5828 5830 5831 5833 5836 5838 5841 5844 5848 5851 5855 5859 5862 5865 5868
5796 5797 5798 5799 5800 5800 5800 5800 5801 5802 5804 5805 5806 5808 5809 5811 5812 5813 5814 5815 5815 5816 5817 5818 5819 5819 5821 5822 5823 5825 5826 5828 5830 5832 5835 5838 5841 5844 5848 5852 5855 5858 5862
5788 5789 5790 5791 5792 5793 5793 5794 5795 5795 5797 5799 5800 5802 5803 5804 5806 5807 5808 5809 5811 5812 5813 5814 5815 5815 5816 5817 5818 5820 5821 5823 5825 5826 5829 5831 5834 5838 5841 5845 5848 5852 5855
5780 5781 5782 5782 5783 5784 5785 5786 5787 5788 5789 5791 5793 5795 5796 5798 5799 5801 5802 5804 5805 5807 5808 5809 5810 5811 5812 5812 5813 5815 5816 5818 5819 5820 5823 5825 5828 5831 5834 5837 5841 5844 5848
5770 5770 5772 5773 5774 5775 5776 5777 5778 5779 5781 5782 5784 5787 5789 5790 5792 5794 5796 5797 5799 5801 5802 5803 5805 5806 5807 5808 5809 5810 5811 5812 5813 5815 5817 5819 5821 5824 5827 5830 5833 5837 5840
5759 5759 5760 5761 5762 5763 5765 5766 5768 5769 5771 5773 5775 5777 5780 5782 5784 5786 5789 5790 5792 5793 5795 5797 5799 5800 5801 5803 5804 5805 5806 5807 5808 5809 5811 5813 5815 5817 5820 5823 5826 5830 5833
5744 5745 5746 5747 5749 5750 5752 5754 5756 5758 5760 5762 5764 5766 5769 5772 5774 5777 5780 5782 5785 5786 5788 5790 5792 5793 5795 5796 5798 5799 5800 5801 5802 5803 5805 5806 5808 5811 5813 5816 5819 5822 5825
5728 5728 5730 5731 5733 5735 5737 5739 5742 5744 5747 5749 5752 5755 5757 5760 5763 5766 5769 5773 5776 5778 5780 5782 5784 5786 5788 5790 5791 5793 5794 5795 5796 5797 5799 5800 5802 5804 5806 5809 5812 5815 5818
5709 5710 5712 5714 5716 5718 5721 5723 5726 5729 5732 5735 5738 5742 5745 5748 5751 5754 5758 5762 5766 5769 5772 5773 5775 5778 5780 5783 5784 5786 5787 5788 5789 5791 5792 5793 5795 5797 5799 5801 5804 5807 5810
5690 5691 5692 5694 5697 5699 5702 5705 5709 5712 5716 5719 5723 5727 5731 5734 5738 5742 5746 5750 5754 5758 5762 5765 5766 5769 5772 5775 5777 5779 5780 5781 5782 5783 5785 5786 5788 5790 5792 5794 5796 5798 5801
5668 5669 5671 5673 5676 5679 5682 5685 5689 5693 5698 5702 5706 5711 5716 5720 5724 5728 5733 5738 5742 5747 5752 5755 5757 5760 5763 5766 5769 5771 5773 5774 5775 5776 5777 5779 5781 5783 5784 5786 5788 5790 5793
5646 5647 5649 5651 5654 5657 5661 5664 5669 5673 5678 5683 5688 5694 5699 5704 5709 5714 5719 5724 5730 5735 5740 5745 5748 5751 5754 5757 5760 5762 5765 5766 5767 5769 5770 5772 5774 5775 5777 5779 5780 5783 5785
5624 5625 5627 5630 5633 5636 5640 5644 5648 5653 5658 5663 5669 5675 5681 5687 5693 5699 5705 5711 5716 5722 5728 5733 5738 5741 5745 5748 5751 5754 5756 5758 5760 5761 5763 5765 5766 5767 5769 5771 5773 5775 5777
5603 5605 5607 5610 5613 5617 5621 5624 5629 5633 5638 5644 5650 5656 5662 5669 5676 5682 5689 5696 5702 5709 5715 5721 5726 5731 5735 5738 5742 5745 5747 5750 5752 5754 5755 5757 5759 5760 5761 5763 5765 5767 5769
5585 5587 5590 5593 5596 5601 5604 5608 5611 5615 5620 5625 5630 5636 5643 5651 5658 5666 5673 5681 5688 5695 5702 5709 5715 5720 5725 5729 5732 5736 5739 5742 5744 5746 5748 5750 5751 5752 5754 5755 5757 5759 5762
5569 5572 5576 5579 5583 5586 5590 5593 5597 5600 5604 5608 5612 5618 5625 5633 5640 5648 5657 5665 5674 5681 5689 5697 5703 5709 5714 5719 5723 5727 5730 5733 5736 5738 5740 5742 5743 5745 5746 5748 5749 5752 5754
5555 5558 5562 5566 5570 5574 5577 5580 5584 5587 5590 5593 5597 5602 5607 5615 5623 5631 5640 5649 5659 5668 5676 5684 5692 5698 5703 5708 5713 5717 5721 5724 5727 5730 5732 5734 5736 5737 5739 5741 5743 5745 5747
5541 5545 5549 5553 5557 5561 5565 5569 5572 5575 5578 5581 5584 5588 5592 5599 5607 5615 5625 5635 5644 5653 5662 5671 5680 5687 5693 5698 5704 5708 5713 5716 5719 5722 5725 5727 5729 5730 5732 5734 5736 5738 5741
5528 5533 5537 5542 5546 5550 5554 5558 5561 5564 5567 5570 5573 5576 5580 5585 5591 5599 5609 5620 5630 5640 5649 5659 5668 5676 5683 5689 5694 5700 5704 5708 5711 5714 5717 5719 5721 5723 5725 5727 5729 5731 5734
Wind_Speed
26 26 26 24 23 23 22 23 22 21 21 21 21 22 21 20 20 21 22 22 23 24 25 26 25 25 27 27 26 25 23 22 21 20 19 19 18 18 18 17 16 16 15
28 27 25 24 24 23 23 22 22 21 21 21 21 21 21 20 19 21 21 22 22 23 25 26 27 27 27 29 29 28 27 26 24 23 22 22 21 20 19 19 18 18 17
28 24 22 23 23 23 22 22 22 22 22 21 20 20 20 20 20 19 19 19 20 21 23 24 26 26 27 29 30 30 29 28 27 26 26 24 23 22 21 21 20 20 19
25 23 22 23 23 23 22 21 21 21 20 20 19 19 19 20 19 19 18 18 19 19 20 22 23 25 27 28 28 30 31 31 30 29 29 27 26 25 24 23 22 22 21
24 22 21 22 22 22 21 21 20 20 19 19 19 19 19 19 19 19 18 18 19 19 19 21 21 21 23 24 26 27 28 28 30 30 31 30 29 28 26 25 25 24 24
24 23 22 22 21 21 20 20 19 19 19 19 19 18 18 18 18 18 17 17 18 18 18 19 19 20 21 22 23 25 27 28 29 30 31 31 31 30 29 28 27 26 26
23 23 21 21 21 20 20 20 20 19 19 19 18 18 18 18 17 17 16 16 16 17 17 17 18 19 20 22 23 24 25 27 29 30 30 31 32 32 31 30 29 28 27
24 23 22 21 21 21 21 21 20 20 20 19 19 19 19 19 18 17 16 16 15 16 16 16 17 18 18 20 21 22 22 23 27 29 31 30 32 33 32 32 31 31 29
25 25 24 23 22 23 23 22 22 22 22 22 21 21 21 21 20 19 18 17 16 16 16 16 16 16 17 18 19 20 21 21 23 26 29 30 30 31 32 32 32 31 31
27 27 27 26 25 25 24 24 25 24 25 25 24 23 23 23 22 22 21 19 18 17 17 17 16 16 17 18 18 20 21 21 22 24 27 29 30 30 31 33 34 33 33
32 31 30 30 29 29 28 28 28 28 27 27 27 26 26 25 25 25 23 22 21 20 19 18 18 17 17 17 18 19 19 20 21 23 25 27 28 29 30 32 34 34 35
36 36 36 35 34 34 33 32 32 32 31 30 29 29 29 28 28 28 27 26 24 23 22 21 20 19 18 17 17 18 18 19 20 21 23 25 26 28 30 31 32 33 34
42 42 41 41 40 38 38 37 36 36 35 34 33 33 32 32 31 31 30 29 28 26 25 24 23 22 21 19 19 18 18 18 19 21 23 24 26 28 29 30 31 32 33
48 47 47 47 46 45 44 43 42 41 40 39 39 37 36 35 35 34 33 32 31 30 29 27 26 25 23 22 21 20 19 19 19 20 21 23 25 27 29 29 30 32 33
53 53 52 51 51 50 49 48 47 46 45 44 43 42 40 39 38 37 36 35 34 32 32 31 29 27 25 24 23 22 21 21 21 21 22 23 24 26 28 30 31 32 33
56 56 56 56 55 55 54 53 52 51 49 48 47 46 45 43 42 40 39 37 36 34 33 33 32 29 27 26 25 25 23 23 23 23 23 23 24 25 27 29 31 32 33
58 59 59 59 59 58 58 57 56 55 54 53 51 50 48 47 45 44 42 40 38 36 34 34 34 32 30 29 27 27 26 24 24 24 24 24 25 26 26 28 31 32 33
59 59 60 60 60 61 61 61 60 59 58 57 56 54 52 51 49 48 46 43 41 39 37 35 35 35 33 31 29 28 27 26 26 26 25 25 25 25 26 28 29 31 32
57 58 59 60 60 61 61 62 62 62 61 60 59 58 56 54 53 51 49 47 45 42 40 38 37 36 34 32 31 30 29 27 26 26 26 26 26 26 26 28 29 30 31
53 53 54 55 56 57 58 59 60 61 61 62 61 60 59 57 55 54 52 50 47 45 42 40 38 37 36 34 32 31 30 29 27 26 26 26 26 26 27 28 30 31 31
48 48 48 49 49 50 51 53 56 57 59 60 61 61 60 59 58 56 54 52 50 47 45 42 40 38 36 35 33 32 31 29 28 27 27 26 26 27 28 29 29 30 30
43 43 41 42 42 42 44 45 47 50 53 55 58 60 61 60 59 58 56 54 51 49 46 44 42 39 37 36 35 33 31 30 29 28 27 26 25 26 27 28 29 29 30
39 39 37 37 37 37 38 39 40 42 45 48 52 55 58 59 59 59 58 56 53 50 48 45 42 40 38 37 36 34 31 30 29 28 28 28 27 26 26 27 28 29 29
38 38 37 37 35 35 35 34 35 36 37 40 43 47 52 56 58 58 57 56 54 51 49 47 44 41 39 38 36 34 32 30 30 29 28 28 27 27 26 26 27 27 28
36 36 36 36 35 34 34 32 32 32 32 33 35 39 44 49 53 56 56 55 54 52 50 48 45 42 40 38 36 34 32 30 30 29 28 28 27 27 27 27 27 28 28
34 34 34 34 34 33 32 31 31 30 30 31 32 34 37 41 46 50 52 53 53 52 51 49 46 44 41 39 37 34 32 30 29 28 28 27 26 26 27 27 27 28 28
Wind_Direction
277 279 279 281 282 282 283 283 280 278 278 275 273 271 267 267 267 266 264 260 254 250 250 248 247 246 240 237 237 235 233 231 231 229 228 226 224 223 223 222 222 222 223
274 277 276 278 280 281 280 281 281 278 276 275 272 269 267 264 265 267 264 259 256 253 250 248 247 246 243 239 237 236 234 233 233 232 229 229 228 228 227 226 226 226 226
270 273 277 280 281 280 279 278 277 275 273 273 271 268 266 264 263 265 265 264 261 257 252 250 249 245 244 242 239 238 237 235 234 233 231 230 231 231 232 232 231 230 229
270 276 280 280 280 279 276 275 273 270 268 267 266 264 263 263 263 262 264 265 264 260 255 252 250 248 246 242 242 239 237 237 235 234 232 231 232 233 234 234 233 233 232
272 276 279 282 280 276 273 271 270 266 264 263 262 262 262 262 260 260 263 264 262 261 258 256 252 249 247 244 242 240 240 238 237 236 234 233 234 235 236 236 235 235 234
273 276 279 279 279 275 272 269 266 262 260 260 259 259 258 259 259 259 261 261 259 259 257 255 253 251 248 247 246 245 244 242 241 239 238 235 235 236 236 237 237 237 236
273 279 282 277 275 274 271 267 265 260 258 256 256 255 254 255 255 257 259 260 258 257 256 256 256 253 249 248 250 248 248 246 245 241 239 237 235 236 237 237 238 238 237
276 278 278 276 273 272 269 266 261 257 256 255 255 253 252 251 252 254 257 260 261 259 256 256 257 254 252 252 252 250 250 250 246 241 239 240 239 238 238 238 238 238 238
273 274 275 275 272 270 267 264 259 255 254 254 253 252 251 250 250 252 254 257 260 261 258 256 258 254 253 253 252 252 252 252 248 245 243 241 240 238 239 239 239 238 238
273 274 275 273 271 270 267 263 260 256 254 252 252 251 251 251 250 252 253 254 256 258 259 258 256 256 256 255 253 253 253 252 251 249 244 242 241 242 242 241 239 239 238
273 273 272 271 269 268 267 265 262 257 255 253 252 251 250 249 249 251 253 254 254 256 257 258 258 257 258 257 255 256 256 255 253 250 246 243 241 243 243 242 240 240 240
272 271 270 268 267 266 265 264 261 258 257 255 254 252 250 248 247 248 251 253 255 255 256 256 257 258 259 260 257 257 256 256 255 251 247 247 246 244 244 243 241 240 240
270 269 267 266 264 263 263 262 260 258 257 256 255 253 251 249 247 247 248 250 253 255 255 255 255 255 257 258 257 257 257 259 258 254 250 249 248 246 245 246 243 241 242
268 267 265 264 262 261 260 259 258 257 256 255 254 253 252 250 248 247 247 248 250 252 254 255 254 254 255 256 256 256 257 260 261 260 256 252 250 248 246 245 244 243 243
268 267 264 262 261 260 259 257 256 255 254 253 253 252 252 251 249 247 246 246 247 249 251 253 253 252 252 254 255 256 257 260 261 261 259 257 254 250 248 245 245 244 243
267 265 263 261 260 259 257 256 255 254 253 252 251 250 250 250 249 248 246 246 245 245 246 250 252 252 251 251 253 255 258 260 261 260 258 257 255 252 250 248 245 245 245
268 265 263 260 259 257 256 255 253 252 251 250 250 248 248 248 248 247 246 245 244 243 243 244 248 250 251 251 252 253 256 259 261 259 258 256 255 254 251 249 247 246 244
268 266 263 260 259 257 255 254 253 251 250 249 248 247 246 246 246 246 245 244 244 243 242 240 244 248 250 250 251 252 254 257 260 258 257 255 253 254 253 251 248 247 244
268 266 263 261 258 257 255 254 252 251 250 248 247 246 245 245 245 244 244 243 243 242 241 240 241 244 247 249 249 251 253 255 258 258 256 255 255 254 255 253 249 247 244
268 265 262 259 257 256 254 253 252 250 249 248 247 245 244 243 243 243 242 241 241 241 240 239 239 241 243 246 247 249 252 253 255 254 255 256 257 256 256 254 250 247 246
269 265 262 259 256 254 253 252 251 250 248 247 246 244 243 242 241 241 240 239 239 239 239 238 237 238 241 243 245 247 250 251 252 252 254 256 257 256 255 253 251 249 247
265 262 260 257 254 253 252 252 251 250 249 247 246 244 242 241 239 239 238 237 237 237 237 236 236 236 238 241 243 245 248 248 249 250 252 254 256 256 256 252 249 247 246
262 258 255 253 252 252 252 251 251 250 249 248 247 244 241 239 238 237 236 235 234 234 234 234 234 234 236 238 241 243 244 246 246 247 251 254 255 254 252 249 248 246 246
258 255 253 252 251 251 251 251 251 251 251 249 248 245 242 238 236 235 234 233 232 232 231 231 232 232 233 235 238 240 241 244 245 247 251 254 255 253 251 249 247 246 245
257 254 251 250 250 250 250 250 250 250 250 249 248 247 243 239 235 233 232 231 230 229 229 228 229 230 231 232 234 237 239 241 244 246 250 252 252 250 247 248 248 246 243
254 251 250 249 248 247 247 248 248 249 250 249 248 247 243 238 233 230 229 228 227 226 226 225 225 227 228 229 232 234 235 238 240 244 247 248 248 247 246 246 246 245 242